Location: Asheville, NC
(35.6000°N, 82.5500°W)
Time: 06:03:44
(UTC-04:00)

Vanguard 1 - Pass Details

Date: 13 February 2018
Orbit: 650 x 3832 km, 34.2° (Epoch: 19 May)

Event Time Altitude Azimuth Distance (km) Brightness Sun altitude
Rises 23:20:32 0° 268° (W) 2,961 - -60.6°
Reaches altitude 10° 23:23:17 10° 248° (WSW) 2,132 - -61.0°
Maximum altitude 23:26:32 18° 204° (SSW) 1,825 - -61.4°
Drops below altitude 10° 23:30:32 10° 162° (SSE) 2,688 - -62.0°
Sets 23:34:38 0° 145° (SE) 4,104 - -62.5°
